Find Starlink 30953

NORAD ID: 58491 Int'l Des: 2023-186 Owner: SPXS Country: US Constellation: starlink operational
LEOCIRCULAR

实时位置

正在加载3D地球...

关于 Starlink 30953

正在加载描述...

即将过境

Passes for default location (London). Set your location on the main map for personalized predictions.

高度历史

Loading altitude history...

两行轨道根数

1 58491U 23186U 26122.26377141 -.00001193 00000-0 -33858-4 0 9998
2 58491 43.0019 324.9425 0000617 280.8577 79.2206 15.27573691136086
Epoch: May 2, 2026 • Age: 15 hours

当前状态

高度 492.6 km
速度 7.62 km/s
星下点 -34.52°S, 5.53°E
发射日期 Dec 3, 2023
运行时间 2.4 years
类型 internet

技术详情

分类 Payload
质量 730.00 kg
干质量 700.00 kg
总质量 730.00 kg
长度 0.30 m
直径 4.10 m
跨度 29.00 m
形状 Box + pan
制造商 SPXS
平台类型 Starlink V2M
阶段状态 In Orbit
所有者/国家 SPXS/US

Most Searched